[[{"header":{"parameterUnit":"m.s-1","parameterCategory":2,"la1":30.2991,"la2":30.254,"lo1":-89.0895,"lo2":-89.0444,"dy":0.0017,"dx":0.0017,"nx":28,"ny":28,"refTime":"2025-01-12T09:00:00:Z","depth":"0","parameterNumber":2,"parameterNumberName":"U-component_of_CURRENTS"},"data":[0,0,0,0,0,0,0,0,0,0,0,0,0,0,0,0,0,0,0,0,0,0,0,0,0,0,0,0,0,0,0,0,0,0,0,0,0,0,0,0,0,0,0,0,0,0,0,0,0,0,0,0,0,0,0,0,0,0,-0.2521,-0.2521,0,-0.2552,-0.2552,-0.2552,-0.249,-0.2488,-0.2486,-0.2484,-0.2489,-0.2491,-0.2493,0,0,0,0,0,0,0,0,0,0,0,0,0,-0.2358,-0.2361,-0.252,-0.2521,-0.2522,-0.2552,-0.2552,-0.2552,-0.249,-0.2488,-0.2486,-0.2484,-0.2489,-0.2491,-0.2493,0,0,0,0,0,0,0,0,0,0,0,0,0,-0.241,-0.2362,-0.252,-0.2497,-0.2495,-0.2552,-0.2552,-0.2552,-0.249,-0.2488,-0.2485,-0.2483,-0.2488,-0.2491,-0.2493,-0.2562,0,0,-0.2501,-0.2502,0,0,0,0,0,0,0,0,-0.2407,-0.2415,-0.25,-0.2499,-0.2497,-0.2517,-0.2497,-0.2555,-0.2491,-0.2489,-0.2484,-0.2481,-0.2501,-0.2502,-0.2509,-0.2562,-0.2562,-0.2501,-0.2503,-0.2504,-0.2505,0,0,0,0,0,0,0,-0.2403,-0.2413,-0.2529,-0.2501,-0.2499,-0.2469,-0.2473,-0.2507,-0.2506,-0.2489,-0.2485,-0.2495,-0.2499,-0.2507,-0.2509,-0.2562,-0.2501,-0.2504,-0.2505,-0.2506,-0.2592,-0.2593,0,0,0,0,0,0,-0.2413,-0.2411,-0.2528,-0.2531,-0.2449,-0.2474,-0.2479,-0.2511,-0.2506,-0.2504,-0.2497,-0.2492,-0.2503,-0.2506,-0.2509,-0.2531,-0.2504,-0.2507,-0.2508,-0.2591,-0.2592,-0.2593,0,0,0,0,0,0,-0.241,-0.2424,-0.2527,-0.2472,-0.2484,-0.2481,-0.2516,-0.2513,-0.2515,-0.2513,-0.2509,-0.2502,-0.2501,-0.2505,-0.2539,-0.2533,-0.2508,-0.251,-0.259,-0.2591,-0.2592,-0.2615,0,0,0,0,0,0,-0.2405,-0.2423,-0.2447,-0.2474,-0.2487,-0.2568,-0.2519,-0.2515,-0.2527,-0.252,-0.2517,-0.2514,-0.25,-0.2536,-0.2542,-0.2536,-0.2512,-0.2589,-0.2591,-0.2592,-0.2613,-0.2616,-0.2619,0,0,0,0,0,-0.24,-0.244,-0.2448,-0.2462,-0.2522,-0.257,-0.2574,-0.2558,-0.253,-0.2547,-0.2539,-0.2514,-0.2546,-0.254,-0.2547,-0.2541,-0.2589,-0.259,-0.2592,-0.2612,-0.2616,-0.2619,0,0,0,0,0,0,-0.2373,-0.2439,-0.2448,-0.2504,-0.254,-0.256,-0.2577,-0.257,-0.2579,-0.2565,-0.2548,-0.2548,-0.2572,-0.2566,-0.2559,-0.2568,-0.2555,-0.2558,-0.2567,-0.2571,-0.2574,-0.2558,-0.2514,0,0,0,0,0,-0.2386,-0.2424,-0.2487,-0.252,-0.2555,-0.257,-0.2585,-0.2581,-0.2595,-0.2594,-0.259,-0.2582,-0.2589,-0.2587,-0.2602,-0.2626,-0.2609,-0.2619,-0.2622,-0.2625,-0.2616,-0.261,-0.2611,-0.2598,-0.2598,-0.2598,0,0,-0.2384,-0.2418,-0.2442,-0.2516,-0.2543,-0.2593,-0.2572,-0.2605,-0.2612,-0.2598,-0.2606,-0.2611,-0.2604,-0.2619,-0.2625,-0.2607,-0.2619,-0.2627,-0.2629,-0.2618,-0.2611,-0.2612,-0.2613,-0.2599,-0.2599,-0.2599,0,0,-0.2401,-0.244,-0.2493,-0.2534,-0.2589,-0.2601,-0.2618,-0.2656,-0.2643,-0.2676,-0.2648,-0.265,-0.2676,-0.2649,-0.2642,-0.2677,-0.2649,-0.2679,-0.2668,-0.2662,-0.2663,-0.2663,-0.2638,-0.2636,-0.2664,-0.2664,-0.2664,0,-0.2396,-0.2454,-0.251,-0.2572,-0.2578,-0.2611,-0.2646,-0.2667,-0.2693,-0.268,-0.268,-0.2689,-0.2681,-0.2671,-0.2666,-0.268,-0.2672,-0.2653,-0.2665,-0.2665,-0.2665,-0.2639,-0.2637,-0.2665,-0.2665,-0.2665,-0.2665,0,-0.2462,-0.2499,-0.253,-0.2607,-0.2639,-0.2661,-0.2708,-0.2726,-0.2714,-0.2716,-0.272,-0.2721,-0.2711,-0.2708,-0.2696,-0.2683,-0.2676,-0.2682,-0.2652,-0.2667,-0.264,-0.2637,-0.2667,-0.2667,-0.2666,-0.2666,0,0,-0.2442,-0.2553,-0.2554,-0.2566,-0.2635,-0.2658,-0.2694,-0.2711,-0.2714,-0.2739,-0.2723,-0.2727,-0.2721,-0.2712,-0.2698,-0.2682,-0.2667,-0.2676,-0.2675,-0.2645,-0.2645,-0.2641,-0.2637,-0.2682,-0.2681,-0.2681,-0.2624,0,-0.245,-0.2524,-0.2579,-0.2606,-0.2633,-0.2666,-0.2691,-0.2714,-0.2724,-0.2736,-0.2725,-0.2728,-0.2725,-0.2715,-0.2704,-0.268,-0.2661,-0.2681,-0.264,-0.2638,-0.2628,-0.2634,-0.2526,-0.2466,-0.2621,-0.262,-0.262,0,-0.248,-0.2503,-0.2539,-0.2562,-0.2583,-0.2606,-0.2608,-0.2642,-0.2685,-0.2699,-0.2712,-0.2726,-0.2702,-0.2708,-0.2672,-0.2688,-0.2664,-0.2648,-0.2646,-0.263,-0.2629,-0.2479,-0.2455,-0.2437,-0.2614,-0.2615,-0.2615,0,-0.2383,-0.2456,-0.2449,-0.2465,-0.2536,-0.253,-0.2553,-0.2607,-0.262,-0.2668,-0.2681,-0.2695,-0.2681,-0.2673,-0.2656,-0.2658,-0.2624,-0.2621,-0.2595,-0.2593,-0.2484,-0.2474,-0.243,-0.2597,-0.2597,-0.2597,-0.2598,0,-0.2337,-0.2336,-0.24,-0.2395,-0.2384,-0.2455,-0.2455,-0.2505,-0.2556,-0.2575,-0.2641,-0.2653,-0.2674,-0.2671,-0.2655,-0.2619,-0.2623,-0.2587,-0.2581,-0.249,-0.2482,-0.2449,-0.2471,-0.2595,-0.2596,-0.2596,-0.2596,0,-0.2253,-0.2305,-0.2297,-0.2332,-0.2345,-0.2334,-0.2392,-0.2401,-0.2473,-0.2499,-0.251,-0.2593,-0.2608,-0.2633,-0.2617,-0.26,-0.2535,-0.2566,-0.2455,-0.2438,-0.2393,-0.2421,-0.2364,-0.2296,-0.2505,-0.2504,-0.2504,0,-0.2223,-0.2207,-0.2226,-0.2224,-0.2237,-0.2245,-0.2258,-0.234,-0.2359,-0.2458,-0.2454,-0.2508,-0.2541,-0.2541,-0.2543,-0.2525,-0.2509,-0.2405,-0.2391,-0.2372,-0.2398,-0.2406,-0.2353,-0.2242,-0.224,-0.2238,-0.2236,0,-0.2126,-0.2132,-0.2128,-0.2112,-0.211,-0.2122,-0.2142,-0.2151,-0.2253,-0.2294,-0.235,-0.2388,-0.2444,-0.2421,-0.2439,-0.2401,-0.2345,-0.2364,-0.236,-0.2205,-0.2191,-0.2128,-0.2298,-0.2219,-0.222,-0.2222,-0.2223,-0.2223,-0.2038,-0.2008,-0.1994,-0.1979,-0.1984,-0.1969,-0.1941,-0.2001,-0.2027,-0.2084,-0.2199,-0.2253,-0.2298,-0.2323,-0.2301,-0.2213,-0.2248,-0.2126,-0.2161,-0.2172,-0.2108,-0.2249,-0.2169,-0.217,-0.2171,-0.2172,-0.2173,0,-0.19,-0.1887,-0.1862,-0.1827,-0.1779,-0.1832,-0.184,-0.1811,-0.1814,-0.1936,-0.1997,-0.2108,-0.2092,-0.2134,-0.2103,-0.2028,-0.1953,-0.1966,-0.1923,-0.1878,-0.1993,-0.1983,-0.184,-0.184,-0.184,-0.184,-0.184,-0.184,-0.1827,-0.1762,-0.1749,-0.1625,-0.1603,-0.1515,-0.1497,-0.1507,-0.1566,-0.165,-0.177,-0.1917,-0.1986,-0.2135,-0.2037,-0.1932,-0.1871,-0.1814,-0.1845,-0.1916,-0.1933,-0.1949,-0.1942,-0.1793,-0.1793,-0.1627,-0.1626,-0.1626]},{"header":{"parameterUnit":"m.s-1","parameterCategory":2,"la1":30.2991,"la2":30.254,"lo1":-89.0895,"lo2":-89.0444,"dy":0.0017,"dx":0.0017,"nx":28,"ny":28,"refTime":"2025-01-12T09:00:00:Z","depth":"0","parameterNumber":3,"parameterNumberName":"V-component_of_CURRENTS"},"data":[0,0,0,0,0,0,0,0,0,0,0,0,0,0,0,0,0,0,0,0,0,0,0,0,0,0,0,0,0,0,0,0,0,0,0,0,0,0,0,0,0,0,0,0,0,0,0,0,0,0,0,0,0,0,0,0,0,0,-0.0468,-0.0467,0,-0.0376,-0.0375,-0.0374,-0.0312,-0.0312,-0.0312,-0.0312,-0.0153,-0.0149,-0.0145,0,0,0,0,0,0,0,0,0,0,0,0,0,-0.0555,-0.0554,-0.0468,-0.0467,-0.0466,-0.0376,-0.0375,-0.0374,-0.0312,-0.0312,-0.0312,-0.0311,-0.0154,-0.0149,-0.0145,0,0,0,0,0,0,0,0,0,0,0,0,0,-0.0495,-0.0554,-0.0468,-0.0426,-0.0421,-0.0377,-0.0375,-0.0373,-0.0312,-0.0312,-0.0312,-0.0311,-0.0156,-0.015,-0.0144,-0.0115,0,0,-0.0126,-0.0123,0,0,0,0,0,0,0,0,-0.0498,-0.0491,-0.0433,-0.0429,-0.0424,-0.0357,-0.0348,-0.0284,-0.0313,-0.0352,-0.0312,-0.0311,-0.0216,-0.0205,-0.0187,-0.0108,-0.0101,-0.0125,-0.0122,-0.0119,-0.0117,0,0,0,0,0,0,0,-0.0502,-0.0495,-0.043,-0.0432,-0.0426,-0.04,-0.0391,-0.0335,-0.0285,-0.0349,-0.0344,-0.0337,-0.0213,-0.0193,-0.0183,-0.0099,-0.0125,-0.012,-0.0116,-0.0114,0.0017,0.0017,0,0,0,0,0,0,-0.0519,-0.0499,-0.0433,-0.0427,-0.0462,-0.0399,-0.0389,-0.0377,-0.0287,-0.0274,-0.0337,-0.0334,-0.0204,-0.019,-0.0177,-0.0136,-0.0119,-0.0113,-0.011,0.0017,0.0017,0.0017,0,0,0,0,0,0,-0.0521,-0.0514,-0.0437,-0.0463,-0.0451,-0.0398,-0.0386,-0.0376,-0.0358,-0.0279,-0.0264,-0.033,-0.0203,-0.0186,-0.0128,-0.0129,-0.0111,-0.0105,0.0017,0.0017,0.0017,-0.0054,0,0,0,0,0,0,-0.0524,-0.0515,-0.0519,-0.0464,-0.045,-0.042,-0.0386,-0.0374,-0.0355,-0.035,-0.0268,-0.0253,-0.0201,-0.0138,-0.0122,-0.0121,-0.0101,0.0017,0.0017,0.0017,-0.0051,-0.0056,-0.0061,0,0,0,0,0,-0.0528,-0.0529,-0.0519,-0.0512,-0.0454,-0.0421,-0.0412,-0.0371,-0.0355,-0.0353,-0.0293,-0.0256,-0.0128,-0.0133,-0.0115,-0.0111,0.0017,0.0017,0.0017,-0.0049,-0.0055,-0.0061,0,0,0,0,0,0,-0.0571,-0.0522,-0.0509,-0.0497,-0.0469,-0.0412,-0.0405,-0.0379,-0.0331,-0.0326,-0.025,-0.023,-0.0185,-0.0138,-0.0145,-0.0075,-0.0052,-0.0049,-0.0108,-0.0113,-0.0118,-0.0117,-0.0096,0,0,0,0,0,-0.0584,-0.0567,-0.0526,-0.0517,-0.0507,-0.046,-0.0443,-0.0419,-0.0369,-0.0348,-0.0285,-0.0223,-0.0172,-0.0136,-0.0086,-0.004,0.0013,-0.0028,-0.0033,-0.0037,-0.0025,0.0059,0.0063,0.0016,0.0016,0.0016,0,0,-0.0602,-0.0569,-0.0564,-0.0525,-0.0499,-0.0486,-0.0448,-0.043,-0.0412,-0.0337,-0.0287,-0.0238,-0.0166,-0.012,-0.0095,-0.0078,-0.0003,-0.0037,-0.0042,-0.0026,0.0059,0.0064,0.0069,0.0016,0.0016,0.0016,0,0,-0.0628,-0.06,-0.0602,-0.0577,-0.0545,-0.0513,-0.0513,-0.046,-0.0431,-0.0385,-0.0331,-0.0279,-0.0194,-0.0141,-0.0104,-0.0102,-0.0037,-0.0093,-0.0103,-0.0023,-0.0018,-0.0013,0.003,0.004,-0.0087,-0.0087,-0.0087,0,-0.0656,-0.064,-0.06,-0.0593,-0.0572,-0.0529,-0.0527,-0.0494,-0.0426,-0.039,-0.038,-0.0249,-0.0202,-0.0129,-0.0135,-0.0111,-0.0063,-0.0091,-0.0028,-0.0022,-0.0015,0.0028,0.004,-0.009,-0.009,-0.009,-0.0089,0,-0.0681,-0.0668,-0.0665,-0.0636,-0.0614,-0.0602,-0.0555,-0.0526,-0.0485,-0.0435,-0.0361,-0.0291,-0.0206,-0.0196,-0.0164,-0.0097,-0.008,-0.0052,-0.0016,-0.0015,0.003,0.0044,-0.0095,-0.0094,-0.0093,-0.0092,0,0,-0.0728,-0.0694,-0.0688,-0.0678,-0.063,-0.0612,-0.0583,-0.0529,-0.0492,-0.043,-0.0364,-0.0295,-0.0246,-0.0202,-0.0155,-0.0091,-0.003,-0.0057,-0.0051,-0.0018,0.013,0.0152,0.0169,0.0016,0.0018,0.002,0.0132,0,-0.0757,-0.0759,-0.0721,-0.0709,-0.0706,-0.0645,-0.0612,-0.0557,-0.0498,-0.0424,-0.0344,-0.0272,-0.0251,-0.0213,-0.0146,-0.0055,0.0007,-0.0064,0.0129,0.0134,0.0152,0.0187,0.0205,0.0308,0.0145,0.0148,0.0149,0,-0.0787,-0.0777,-0.0786,-0.0731,-0.0721,-0.0704,-0.0629,-0.0593,-0.0489,-0.0437,-0.035,-0.028,-0.0185,-0.0168,-0.0002,-0.0045,0.0037,0.0104,0.0111,0.0174,0.0183,0.0289,0.034,0.0521,0.0171,0.0169,0.0167,0,-0.0838,-0.0808,-0.0814,-0.0799,-0.0746,-0.0725,-0.0684,-0.0597,-0.0557,-0.0442,-0.0402,-0.0265,-0.0205,-0.0071,0.0046,0.0038,0.0229,0.0239,0.0337,0.0338,0.0414,0.0418,0.0666,0.0371,0.0371,0.0371,0.037,0,-0.0876,-0.087,-0.0839,-0.0842,-0.0823,-0.0765,-0.0727,-0.0666,-0.0578,-0.0533,-0.0414,-0.036,-0.0174,-0.0052,0.0064,0.0237,0.0249,0.0352,0.0385,0.0385,0.0385,0.0595,0.0655,0.0375,0.0374,0.0373,0.0372,0,-0.0934,-0.0919,-0.0916,-0.0871,-0.0856,-0.0842,-0.0774,-0.0742,-0.0657,-0.0599,-0.0566,-0.0413,-0.0253,-0.0077,0.014,0.025,0.052,0.0474,0.0439,0.0467,0.0728,0.078,0.104,0.1118,0.0616,0.0618,0.0619,0,-0.0964,-0.0978,-0.0952,-0.0954,-0.0937,-0.0906,-0.0885,-0.0795,-0.0763,-0.0645,-0.0622,-0.0454,-0.0347,-0.0023,0.0227,0.0468,0.0587,0.0626,0.0622,0.0769,0.0854,0.0885,0.0932,0.0681,0.0683,0.0684,0.0685,0,-0.1012,-0.1008,-0.1008,-0.1017,-0.1008,-0.0988,-0.095,-0.0943,-0.0845,-0.0801,-0.072,-0.0627,-0.0301,-0.0005,0.0333,0.0478,0.0754,0.0661,0.0851,0.0965,0.0983,0.1062,0.0549,0.0697,0.0696,0.0695,0.0694,0.0694,-0.1035,-0.105,-0.1055,-0.1058,-0.1057,-0.1057,-0.1054,-0.1028,-0.0997,-0.0928,-0.0818,-0.0667,-0.0187,0.0297,0.0483,0.0916,0.087,0.1041,0.11,0.1124,0.1194,0.0686,0.0848,0.0848,0.0848,0.0847,0.0847,0,-0.1046,-0.1067,-0.1086,-0.1089,-0.11,-0.1086,-0.1083,-0.1088,-0.1088,-0.0996,-0.0913,-0.0441,0.0037,0.0497,0.1111,0.135,0.139,0.1468,0.1542,0.1574,0.1176,0.1176,0.1371,0.1371,0.1371,0.1371,0.137,0.137,-0.105,-0.1079,-0.1092,-0.1115,-0.1122,-0.1141,-0.115,-0.1176,-0.1124,-0.0975,-0.0747,-0.0557,0.0144,0.1164,0.1752,0.1803,0.1993,0.1969,0.2073,0.1825,0.179,0.1756,0.1776,0.2094,0.2095,0.2448,0.2452,0.2454]}],[{"header":{"parameterUnit":"m.s-1","parameterCategory":2,"la1":30.2991,"la2":30.254,"lo1":-89.0895,"lo2":-89.0444,"dy":0.0017,"dx":0.0017,"nx":28,"ny":28,"refTime":"2025-01-12T09:00:00:Z","depth":"2","parameterNumber":2,"parameterNumberName":"U-component_of_CURRENTS"},"data":[0,0,0,0,0,0,0,0,0,0,0,0,0,0,0,0,0,0,0,0,0,0,0,0,0,0,0,0,0,0,0,0,0,0,0,0,0,0,0,0,0,0,0,0,0,0,0,0,0,0,0,0,0,0,0,0,0,0,-0.1401,-0.1404,0,-0.1594,-0.1595,-0.1596,-0.1617,-0.1616,-0.1616,-0.1615,-0.1521,-0.1519,-0.1518,0,0,0,0,0,0,0,0,0,0,0,0,0,-0.1344,-0.1342,-0.14,-0.1404,-0.1408,-0.1594,-0.1595,-0.1596,-0.1617,-0.1616,-0.1616,-0.1615,-0.1522,-0.152,-0.1517,0,0,0,0,0,0,0,0,0,0,0,0,0,-0.1422,-0.1341,-0.14,-0.1451,-0.1458,-0.1593,-0.1595,-0.1597,-0.1617,-0.1616,-0.1615,-0.1614,-0.1523,-0.152,-0.1517,-0.152,0,0,-0.1509,-0.1507,0,0,0,0,0,0,0,0,-0.1417,-0.1422,-0.144,-0.1448,-0.1457,-0.1593,-0.1542,-0.1562,-0.1618,-0.1542,-0.1615,-0.1614,-0.1528,-0.1525,-0.1548,-0.1516,-0.1512,-0.1508,-0.1507,-0.1505,-0.1505,0,0,0,0,0,0,0,-0.1411,-0.1416,-0.1463,-0.1444,-0.1454,-0.1567,-0.1572,-0.1547,-0.1522,-0.1549,-0.1554,-0.1598,-0.1529,-0.1551,-0.1545,-0.151,-0.1508,-0.1506,-0.1504,-0.1503,-0.159,-0.1594,0,0,0,0,0,0,-0.14,-0.1408,-0.1457,-0.147,-0.145,-0.1568,-0.1574,-0.1538,-0.1529,-0.1533,-0.1599,-0.1599,-0.1556,-0.1549,-0.1542,-0.1617,-0.1505,-0.1503,-0.1501,-0.1586,-0.1591,-0.1596,0,0,0,0,0,0,-0.1397,-0.1399,-0.1449,-0.1461,-0.1476,-0.1569,-0.153,-0.1543,-0.1589,-0.1573,-0.1568,-0.1636,-0.1555,-0.1546,-0.1543,-0.161,-0.1502,-0.1499,-0.1582,-0.1588,-0.1593,-0.172,0,0,0,0,0,0,-0.1393,-0.1395,-0.1364,-0.1456,-0.1476,-0.1534,-0.1534,-0.1548,-0.1623,-0.1624,-0.1602,-0.1592,-0.1553,-0.1548,-0.1541,-0.1604,-0.1497,-0.1577,-0.1584,-0.1591,-0.1711,-0.1729,-0.1745,0,0,0,0,0,-0.1389,-0.1451,-0.1359,-0.1368,-0.1427,-0.1537,-0.1555,-0.1613,-0.1626,-0.1647,-0.1641,-0.1594,-0.1592,-0.1548,-0.1538,-0.1603,-0.1573,-0.1582,-0.1591,-0.1703,-0.1726,-0.1745,0,0,0,0,0,0,-0.1467,-0.146,-0.1364,-0.142,-0.1437,-0.1545,-0.1625,-0.1633,-0.1654,-0.1662,-0.1617,-0.1607,-0.1622,-0.1609,-0.1562,-0.1659,-0.1586,-0.1594,-0.1675,-0.1696,-0.1713,-0.174,-0.1494,0,0,0,0,0,-0.1439,-0.1445,-0.1439,-0.1479,-0.1491,-0.1531,-0.1588,-0.161,-0.1657,-0.1669,-0.1664,-0.1666,-0.1655,-0.1669,-0.1643,-0.1697,-0.1654,-0.1746,-0.1763,-0.1778,-0.18,-0.1777,-0.1793,-0.1625,-0.1625,-0.1625,0,0,-0.1455,-0.1488,-0.1464,-0.1489,-0.1517,-0.1572,-0.1563,-0.1672,-0.1733,-0.165,-0.1743,-0.1697,-0.1672,-0.1717,-0.1732,-0.1719,-0.1808,-0.1789,-0.1801,-0.1815,-0.1788,-0.1804,-0.1818,-0.1631,-0.163,-0.1629,0,0,-0.156,-0.1529,-0.1534,-0.1571,-0.1628,-0.1666,-0.1691,-0.1766,-0.1802,-0.1849,-0.1816,-0.1835,-0.1829,-0.1853,-0.1853,-0.1965,-0.1869,-0.1956,-0.2097,-0.2075,-0.2088,-0.2098,-0.2069,-0.2076,-0.2003,-0.2003,-0.2003,0,-0.1569,-0.1592,-0.1571,-0.1633,-0.171,-0.1705,-0.1769,-0.182,-0.1891,-0.1915,-0.1892,-0.1918,-0.191,-0.1971,-0.2029,-0.2006,-0.1952,-0.2008,-0.2094,-0.2103,-0.2111,-0.2079,-0.2085,-0.201,-0.2009,-0.2009,-0.2008,0,-0.1664,-0.1688,-0.1763,-0.1776,-0.1832,-0.1949,-0.1976,-0.2026,-0.2061,-0.208,-0.2122,-0.2114,-0.2123,-0.2151,-0.2127,-0.2207,-0.2133,-0.2078,-0.2028,-0.2135,-0.2095,-0.2099,-0.202,-0.2018,-0.2016,-0.2014,0,0,-0.1682,-0.1779,-0.1801,-0.1807,-0.1944,-0.1992,-0.2111,-0.2178,-0.2213,-0.2266,-0.2305,-0.2373,-0.2331,-0.2335,-0.2314,-0.2354,-0.2392,-0.2265,-0.2261,-0.2217,-0.2315,-0.2302,-0.2302,-0.2317,-0.2318,-0.2319,-0.2264,0,-0.1754,-0.1877,-0.1932,-0.2044,-0.2099,-0.2159,-0.2246,-0.2297,-0.2335,-0.236,-0.2388,-0.2387,-0.2412,-0.2386,-0.2442,-0.2356,-0.2405,-0.2411,-0.2237,-0.2234,-0.219,-0.2309,-0.2109,-0.2045,-0.2266,-0.2267,-0.2267,0,-0.1796,-0.1909,-0.2024,-0.2125,-0.2147,-0.2206,-0.231,-0.2378,-0.2422,-0.2434,-0.2469,-0.2431,-0.2506,-0.2476,-0.2486,-0.2464,-0.243,-0.2395,-0.2389,-0.2336,-0.2228,-0.1976,-0.2042,-0.2272,-0.2271,-0.2271,-0.2271,0,-0.18,-0.1949,-0.2055,-0.2115,-0.2237,-0.2276,-0.2321,-0.2383,-0.2407,-0.2448,-0.243,-0.2488,-0.247,-0.2464,-0.2455,-0.2432,-0.2422,-0.2361,-0.2335,-0.2331,-0.2115,-0.2091,-0.2388,-0.2388,-0.2389,-0.2389,-0.2389,0,-0.1861,-0.1954,-0.204,-0.2118,-0.2183,-0.2248,-0.2286,-0.2336,-0.2363,-0.2373,-0.2435,-0.244,-0.2459,-0.2455,-0.2444,-0.2419,-0.2417,-0.2389,-0.2334,-0.2158,-0.214,-0.2294,-0.2284,-0.2387,-0.2387,-0.2387,-0.2388,0,-0.1828,-0.1919,-0.2034,-0.2163,-0.2178,-0.2198,-0.2223,-0.2219,-0.2284,-0.2289,-0.2293,-0.2369,-0.239,-0.2417,-0.2396,-0.2391,-0.2365,-0.236,-0.2168,-0.2096,-0.2282,-0.2279,-0.2298,-0.2297,-0.2297,-0.2297,-0.2296,0,-0.1821,-0.1893,-0.2022,-0.2031,-0.2085,-0.2109,-0.2102,-0.2162,-0.2164,-0.2253,-0.2239,-0.2288,-0.2322,-0.2322,-0.2316,-0.2298,-0.2357,-0.2106,-0.2077,-0.2338,-0.2281,-0.2279,-0.2278,-0.1821,-0.1817,-0.1814,-0.1811,0,-0.1836,-0.1886,-0.1949,-0.197,-0.1964,-0.1966,-0.1969,-0.1962,-0.2044,-0.2076,-0.2135,-0.2168,-0.2217,-0.2138,-0.2154,-0.2111,-0.2095,-0.2039,-0.2326,-0.1908,-0.1893,-0.1836,-0.1849,-0.1781,-0.1784,-0.1786,-0.1788,-0.1789,-0.1807,-0.1816,-0.1855,-0.1852,-0.1844,-0.1807,-0.1769,-0.1806,-0.1814,-0.1861,-0.1977,-0.1989,-0.2007,-0.1946,-0.1882,-0.1828,-0.197,-0.1852,-0.1859,-0.1871,-0.1859,-0.1847,-0.1722,-0.1725,-0.1727,-0.1729,-0.1731,0,-0.1697,-0.1707,-0.1719,-0.1691,-0.1625,-0.1672,-0.1658,-0.1615,-0.1613,-0.1694,-0.1749,-0.1624,-0.16,-0.1624,-0.151,-0.1511,-0.1457,-0.1428,-0.1338,-0.1369,-0.1397,-0.1359,-0.109,-0.1089,-0.1087,-0.1085,0,0,-0.1629,-0.1588,-0.1598,-0.1465,-0.1446,-0.1343,-0.1322,-0.1318,-0.1345,-0.1339,-0.1356,-0.1516,-0.157,-0.133,-0.128,-0.1166,-0.1245,-0.1102,-0.1612,-0.1534,-0.156,-0.1637,-0.1614,0,0,0,0,0]},{"header":{"parameterUnit":"m.s-1","parameterCategory":2,"la1":30.2991,"la2":30.254,"lo1":-89.0895,"lo2":-89.0444,"dy":0.0017,"dx":0.0017,"nx":28,"ny":28,"refTime":"2025-01-12T09:00:00:Z","depth":"2","parameterNumber":3,"parameterNumberName":"V-component_of_CURRENTS"},"data":[0,0,0,0,0,0,0,0,0,0,0,0,0,0,0,0,0,0,0,0,0,0,0,0,0,0,0,0,0,0,0,0,0,0,0,0,0,0,0,0,0,0,0,0,0,0,0,0,0,0,0,0,0,0,0,0,0,0,-0.0242,-0.0242,0,-0.0161,-0.016,-0.0159,-0.0118,-0.0118,-0.0119,-0.0119,0.0021,0.0025,0.0029,0,0,0,0,0,0,0,0,0,0,0,0,0,-0.033,-0.0329,-0.0242,-0.0241,-0.0241,-0.0161,-0.016,-0.0158,-0.0118,-0.0118,-0.0119,-0.0119,0.002,0.0025,0.0029,0,0,0,0,0,0,0,0,0,0,0,0,0,-0.0272,-0.0328,-0.0242,-0.0213,-0.021,-0.0161,-0.016,-0.0158,-0.0118,-0.0119,-0.0119,-0.0119,0.0018,0.0024,0.003,0.0075,0,0,0.0048,0.0051,0,0,0,0,0,0,0,0,-0.0275,-0.0269,-0.0218,-0.0215,-0.0212,-0.0153,-0.0139,-0.0078,-0.0118,-0.015,-0.0119,-0.0119,-0.0033,-0.0023,-0.0003,0.0081,0.0087,0.0049,0.0052,0.0055,0.0057,0,0,0,0,0,0,0,-0.028,-0.0272,-0.0207,-0.0217,-0.0213,-0.0193,-0.0185,-0.0127,-0.0087,-0.0147,-0.0145,-0.014,-0.003,-0.0009,0.0,0.0089,0.0049,0.0054,0.0058,0.006,0.0201,0.0201,0,0,0,0,0,0,-0.0296,-0.0275,-0.021,-0.0205,-0.0248,-0.0192,-0.0183,-0.0169,-0.0089,-0.0078,-0.014,-0.0139,-0.0019,-0.0007,0.0005,0.0034,0.0055,0.0061,0.0064,0.02,0.0201,0.0201,0,0,0,0,0,0,-0.0298,-0.0291,-0.0213,-0.0241,-0.023,-0.019,-0.0175,-0.0167,-0.0159,-0.0084,-0.0072,-0.0142,-0.0019,-0.0003,0.005,0.004,0.0063,0.0069,0.02,0.0201,0.0201,0.0109,0,0,0,0,0,0,-0.0301,-0.0292,-0.0285,-0.0242,-0.023,-0.0195,-0.0174,-0.0165,-0.0156,-0.0153,-0.0081,-0.0068,-0.0018,0.004,0.0056,0.0049,0.0073,0.02,0.02,0.0201,0.0112,0.0106,0.0101,0,0,0,0,0,-0.0304,-0.031,-0.0285,-0.0278,-0.0222,-0.0195,-0.0187,-0.0158,-0.0156,-0.0152,-0.0103,-0.0071,0.0053,0.0046,0.0063,0.0058,0.02,0.02,0.0201,0.0114,0.0107,0.0101,0,0,0,0,0,0,-0.0366,-0.0305,-0.0278,-0.0269,-0.0235,-0.019,-0.0191,-0.0169,-0.0127,-0.0134,-0.0062,-0.0044,0.0006,0.0044,0.0034,0.0101,0.013,0.0133,0.0058,0.0052,0.0047,0.0031,0.0078,0,0,0,0,0,-0.0369,-0.0344,-0.0294,-0.0287,-0.0277,-0.0234,-0.0221,-0.0204,-0.0164,-0.0148,-0.0089,-0.0033,0.0025,0.0044,0.0111,0.014,0.0189,0.0148,0.0143,0.0138,0.0138,0.0217,0.0219,0.0202,0.0202,0.0202,0,0,-0.0393,-0.0357,-0.0343,-0.0296,-0.0272,-0.0255,-0.0227,-0.0224,-0.0209,-0.0138,-0.0097,-0.0037,0.0035,0.0077,0.01,0.0101,0.0163,0.0138,0.0133,0.0136,0.0218,0.0219,0.0221,0.0202,0.0202,0.0202,0,0,-0.0429,-0.0396,-0.0385,-0.0356,-0.0323,-0.0293,-0.0298,-0.0251,-0.0232,-0.0185,-0.0129,-0.0086,0.0008,0.0047,0.008,0.0083,0.0147,0.0105,0.0048,0.0124,0.0126,0.0129,0.0164,0.017,0.0083,0.0083,0.0083,0,-0.0456,-0.0437,-0.0383,-0.0369,-0.036,-0.0315,-0.0319,-0.0284,-0.0223,-0.0202,-0.0185,-0.005,-0.0008,0.0044,0.0034,0.0068,0.0119,0.0061,0.0116,0.012,0.0124,0.016,0.0168,0.0079,0.0079,0.008,0.008,0,-0.0479,-0.0464,-0.0469,-0.042,-0.0399,-0.0407,-0.0355,-0.0329,-0.0299,-0.0251,-0.0183,-0.0114,-0.0038,-0.0026,-0.0,0.0043,0.0071,0.0113,0.0126,0.012,0.0158,0.0168,0.0073,0.0074,0.0075,0.0076,0,0,-0.0533,-0.049,-0.0489,-0.048,-0.0437,-0.0425,-0.0404,-0.0362,-0.0338,-0.0272,-0.0227,-0.016,-0.0114,-0.0075,-0.0032,0.0006,0.0047,0.0053,0.006,0.0076,0.0199,0.0221,0.0235,0.011,0.0112,0.0113,0.0203,0,-0.057,-0.0573,-0.053,-0.0532,-0.0539,-0.0485,-0.0455,-0.0407,-0.0356,-0.029,-0.0228,-0.0155,-0.0133,-0.0103,-0.0059,0.0039,0.0075,0.0017,0.0214,0.0219,0.0231,0.0248,0.0203,0.0282,0.0213,0.0215,0.0216,0,-0.0595,-0.0603,-0.0627,-0.0589,-0.0584,-0.0565,-0.0521,-0.0484,-0.0387,-0.0342,-0.0269,-0.0189,-0.013,-0.0099,0.0043,0.0013,0.0092,0.0158,0.0165,0.0229,0.0262,0.0286,0.0303,0.0234,0.0233,0.0231,0.023,0,-0.0672,-0.0653,-0.0685,-0.0678,-0.0635,-0.0626,-0.0588,-0.0506,-0.0473,-0.037,-0.0333,-0.0215,-0.0163,-0.0036,0.0078,0.0077,0.0245,0.0269,0.0363,0.0364,0.0385,0.0386,0.0383,0.0383,0.0382,0.0382,0.0382,0,-0.0718,-0.0744,-0.0722,-0.0746,-0.075,-0.0688,-0.0663,-0.0605,-0.052,-0.0479,-0.0364,-0.0315,-0.0138,-0.0023,0.0088,0.0249,0.026,0.036,0.0401,0.0349,0.0345,0.036,0.0356,0.0385,0.0385,0.0384,0.0384,0,-0.0792,-0.0784,-0.0821,-0.0805,-0.0791,-0.0791,-0.0716,-0.0686,-0.0607,-0.0554,-0.0526,-0.0378,-0.0229,-0.0059,0.0145,0.0252,0.0409,0.0464,0.0367,0.0396,0.0469,0.0459,0.0585,0.0586,0.0588,0.0589,0.059,0,-0.0827,-0.0867,-0.088,-0.0887,-0.0881,-0.0861,-0.0835,-0.0746,-0.0713,-0.0603,-0.0583,-0.0427,-0.0324,-0.0022,0.0211,0.0436,0.044,0.0529,0.0524,0.0469,0.0496,0.0483,0.0472,0.0501,0.0501,0.0501,0.0501,0,-0.0911,-0.0926,-0.0947,-0.0969,-0.0961,-0.0942,-0.0902,-0.0896,-0.0796,-0.0758,-0.0681,-0.0593,-0.0295,-0.0046,0.0269,0.0397,0.0493,0.0542,0.0542,0.0456,0.0398,0.0421,0.0411,0.0503,0.0503,0.0503,0.0503,0.0503,-0.0959,-0.099,-0.1009,-0.1019,-0.1017,-0.1011,-0.1007,-0.0975,-0.0944,-0.0877,-0.0775,-0.0633,-0.0353,0.0076,0.031,0.054,0.0539,0.0594,0.059,0.0587,0.0561,0.0509,0.0628,0.0629,0.0629,0.0629,0.063,0,-0.0975,-0.1008,-0.1043,-0.1048,-0.1055,-0.104,-0.1032,-0.1031,-0.1027,-0.094,-0.086,-0.0579,-0.0273,0.0021,0.0385,0.0605,0.0588,0.0635,0.0568,0.0565,0.0562,0.0532,0.0593,0.0594,0.0595,0.0595,0,0,-0.0977,-0.1019,-0.1042,-0.1064,-0.1074,-0.1088,-0.1095,-0.1108,-0.1056,-0.0997,-0.0877,-0.0671,-0.0299,-0.0045,0.0234,0.0422,0.0434,0.0437,0.044,0.0324,0.0319,0.0512,0.0459,0,0,0,0,0]}],[{"header":{"parameterUnit":"m.s-1","parameterCategory":2,"la1":30.2991,"la2":30.254,"lo1":-89.0895,"lo2":-89.0444,"dy":0.0017,"dx":0.0017,"nx":28,"ny":28,"refTime":"2025-01-12T09:00:00:Z","depth":"4","parameterNumber":2,"parameterNumberName":"U-component_of_CURRENTS"},"data":[0,0,0,0,0,0,0,0,0,0,0,0,0,0,0,0,0,0,0,0,0,0,0,0,0,0,0,0,0,0,0,0,0,0,0,0,0,0,0,0,0,0,0,0,0,0,0,0,0,0,0,0,0,0,0,0,0,0,-0.0687,-0.0687,0,-0.0727,-0.0728,-0.0728,-0.075,-0.075,-0.075,-0.075,-0.0788,-0.0788,-0.0789,0,0,0,0,0,0,0,0,0,0,0,0,0,-0.062,-0.0621,-0.0687,-0.0687,-0.0688,-0.0727,-0.0728,-0.0728,-0.075,-0.075,-0.075,-0.075,-0.0787,-0.0788,-0.0789,0,0,0,0,0,0,0,0,0,0,0,0,0,-0.0653,-0.0621,-0.0686,-0.0704,-0.0706,-0.0727,-0.0728,-0.0728,-0.075,-0.075,-0.075,-0.075,-0.0787,-0.0788,-0.079,-0.0795,0,0,-0.0794,-0.0794,0,0,0,0,0,0,0,0,-0.0651,-0.0655,-0.0701,-0.0703,-0.0705,-0.0734,-0.0718,-0.0751,-0.0749,-0.0732,-0.075,-0.075,-0.077,-0.0773,-0.0779,-0.0797,-0.0798,-0.0794,-0.0795,-0.0795,-0.0796,0,0,0,0,0,0,0,-0.0649,-0.0653,-0.0702,-0.0701,-0.0704,-0.0707,-0.0712,-0.0724,-0.0749,-0.0734,-0.0735,-0.0741,-0.0771,-0.0777,-0.078,-0.0799,-0.0794,-0.0795,-0.0796,-0.0796,-0.0854,-0.0855,0,0,0,0,0,0,-0.0646,-0.0651,-0.0701,-0.0703,-0.0679,-0.0708,-0.0714,-0.0724,-0.0749,-0.0753,-0.0741,-0.0742,-0.0775,-0.0778,-0.0781,-0.0829,-0.0795,-0.0797,-0.0797,-0.0854,-0.0855,-0.0855,0,0,0,0,0,0,-0.0644,-0.065,-0.0699,-0.0678,-0.0685,-0.0709,-0.0721,-0.0725,-0.0744,-0.0755,-0.0759,-0.0757,-0.0775,-0.0779,-0.0804,-0.0829,-0.0797,-0.0798,-0.0853,-0.0854,-0.0855,-0.0898,0,0,0,0,0,0,-0.0642,-0.0649,-0.0655,-0.0679,-0.0686,-0.072,-0.0721,-0.0725,-0.0746,-0.0749,-0.077,-0.0773,-0.0776,-0.0802,-0.0806,-0.083,-0.0799,-0.0852,-0.0853,-0.0855,-0.0896,-0.0901,-0.0905,0,0,0,0,0,-0.064,-0.0649,-0.0655,-0.0661,-0.0694,-0.072,-0.0725,-0.0741,-0.0747,-0.0758,-0.0774,-0.0773,-0.0813,-0.0804,-0.0808,-0.0833,-0.0851,-0.0853,-0.0854,-0.0894,-0.09,-0.0905,0,0,0,0,0,0,-0.0627,-0.0653,-0.066,-0.0677,-0.07,-0.0724,-0.0736,-0.0748,-0.0769,-0.0774,-0.0783,-0.0787,-0.0816,-0.0817,-0.0807,-0.0853,-0.0832,-0.0834,-0.0861,-0.0866,-0.0871,-0.0889,-0.0801,0,0,0,0,0,-0.0626,-0.0638,-0.0665,-0.068,-0.0692,-0.0716,-0.0729,-0.0743,-0.0765,-0.0775,-0.0788,-0.0804,-0.0824,-0.0839,-0.0848,-0.0878,-0.0912,-0.0895,-0.09,-0.0903,-0.092,-0.0988,-0.1001,-0.0861,-0.0861,-0.0861,0,0,-0.0627,-0.0641,-0.065,-0.0678,-0.0697,-0.072,-0.0725,-0.0751,-0.0775,-0.0775,-0.0809,-0.0818,-0.0832,-0.0863,-0.0877,-0.0871,-0.0964,-0.0906,-0.0909,-0.0924,-0.0991,-0.1005,-0.1018,-0.0862,-0.0862,-0.0861,0,0,-0.0633,-0.0649,-0.0661,-0.0681,-0.071,-0.0727,-0.0738,-0.0769,-0.0788,-0.0817,-0.0826,-0.0853,-0.0876,-0.0899,-0.0912,-0.0947,-0.098,-0.0949,-0.0996,-0.1062,-0.1075,-0.1086,-0.1163,-0.1181,-0.0958,-0.0958,-0.0958,0,-0.0632,-0.0653,-0.0669,-0.0688,-0.0711,-0.0733,-0.076,-0.0781,-0.0816,-0.0845,-0.0832,-0.0896,-0.0896,-0.0959,-0.0967,-0.096,-0.101,-0.0975,-0.107,-0.1082,-0.1094,-0.1169,-0.1188,-0.096,-0.096,-0.096,-0.0959,0,-0.0647,-0.0669,-0.068,-0.0711,-0.0737,-0.0764,-0.0799,-0.0831,-0.0853,-0.0878,-0.0939,-0.0949,-0.0998,-0.0995,-0.0991,-0.1074,-0.109,-0.1064,-0.1061,-0.1111,-0.1186,-0.1206,-0.0963,-0.0963,-0.0962,-0.0961,0,0,-0.063,-0.068,-0.0685,-0.0709,-0.0755,-0.078,-0.083,-0.0888,-0.0952,-0.0964,-0.1053,-0.1058,-0.1081,-0.1098,-0.1106,-0.1153,-0.1263,-0.1149,-0.1151,-0.1233,-0.1437,-0.1293,-0.1301,-0.1265,-0.1268,-0.127,-0.1464,0,-0.0638,-0.0674,-0.0704,-0.0752,-0.0777,-0.0827,-0.0888,-0.0945,-0.0998,-0.1088,-0.1109,-0.1183,-0.1117,-0.1169,-0.1201,-0.1259,-0.1315,-0.1214,-0.1369,-0.1374,-0.1247,-0.1318,-0.1281,-0.1479,-0.1483,-0.1486,-0.1489,0,-0.0636,-0.0665,-0.0709,-0.0793,-0.0815,-0.0852,-0.0971,-0.1029,-0.1149,-0.1212,-0.128,-0.131,-0.1391,-0.1329,-0.1442,-0.139,-0.142,-0.1445,-0.1452,-0.1317,-0.1265,-0.1414,-0.1524,-0.1521,-0.1519,-0.1516,-0.1514,0,-0.0605,-0.0669,-0.0706,-0.0729,-0.0826,-0.0873,-0.0936,-0.1057,-0.1155,-0.1302,-0.1398,-0.1475,-0.1548,-0.159,-0.1592,-0.1556,-0.1719,-0.1676,-0.1578,-0.157,-0.1624,-0.1609,-0.1766,-0.1766,-0.1765,-0.1765,-0.1764,0,-0.0592,-0.0624,-0.0695,-0.0715,-0.0796,-0.0869,-0.1007,-0.1083,-0.1261,-0.1383,-0.1457,-0.1557,-0.1618,-0.1688,-0.1682,-0.1682,-0.179,-0.1611,-0.1612,-0.1637,-0.1622,-0.1639,-0.1621,-0.1772,-0.177,-0.1769,-0.1768,0,-0.055,-0.0594,-0.0642,-0.0739,-0.0778,-0.0833,-0.1036,-0.1158,-0.1308,-0.1479,-0.1536,-0.1673,-0.1748,-0.1782,-0.1873,-0.179,-0.1813,-0.1782,-0.1838,-0.1835,-0.1614,-0.1597,-0.1736,-0.1732,-0.173,-0.1727,-0.1725,0,-0.0532,-0.0547,-0.0639,-0.069,-0.0734,-0.0858,-0.0977,-0.1158,-0.1284,-0.1514,-0.158,-0.1716,-0.1774,-0.1806,-0.1832,-0.185,-0.179,-0.1815,-0.1676,-0.1626,-0.1613,-0.16,-0.1587,-0.172,-0.172,-0.1719,-0.1718,0,-0.0495,-0.0525,-0.0566,-0.0669,-0.0767,-0.0909,-0.1057,-0.1143,-0.1356,-0.1506,-0.1598,-0.1635,-0.1719,-0.1737,-0.1754,-0.1745,-0.1809,-0.1784,-0.1789,-0.1659,-0.1608,-0.1596,-0.1587,-0.1708,-0.171,-0.171,-0.1711,0,-0.0468,-0.0482,-0.0549,-0.0645,-0.0781,-0.0904,-0.0994,-0.1136,-0.1272,-0.1476,-0.1497,-0.1609,-0.171,-0.1686,-0.17,-0.1681,-0.1641,-0.1574,-0.1589,-0.1601,-0.1451,-0.1361,-0.141,0,0,0,0,0,-0.0434,-0.046,-0.0542,-0.0643,-0.0792,-0.0866,-0.1044,-0.1143,-0.1311,-0.1339,-0.1416,-0.147,-0.1498,-0.1553,-0.1501,-0.1631,-0.1644,-0.1564,-0.1573,-0.1652,-0.1664,-0.149,0,0,0,0,0,0,-0.0414,-0.0461,-0.0512,-0.0649,-0.0722,-0.0879,-0.0977,-0.1079,-0.1101,-0.1245,-0.1264,-0.1368,-0.1411,-0.1499,-0.1465,-0.148,-0.1454,-0.163,-0.1626,-0.1645,-0.1656,-0.1665,-0.1491,0,0,0,0,0]},{"header":{"parameterUnit":"m.s-1","parameterCategory":2,"la1":30.2991,"la2":30.254,"lo1":-89.0895,"lo2":-89.0444,"dy":0.0017,"dx":0.0017,"nx":28,"ny":28,"refTime":"2025-01-12T09:00:00:Z","depth":"4","parameterNumber":3,"parameterNumberName":"V-component_of_CURRENTS"},"data":[0,0,0,0,0,0,0,0,0,0,0,0,0,0,0,0,0,0,0,0,0,0,0,0,0,0,0,0,0,0,0,0,0,0,0,0,0,0,0,0,0,0,0,0,0,0,0,0,0,0,0,0,0,0,0,0,0,0,0.0185,0.0185,0,0.0227,0.0227,0.0228,0.027,0.0271,0.0271,0.0271,0.0329,0.033,0.0332,0,0,0,0,0,0,0,0,0,0,0,0,0,0.0181,0.0181,0.0184,0.0185,0.0185,0.0227,0.0227,0.0228,0.027,0.0271,0.0271,0.0271,0.0329,0.033,0.0332,0,0,0,0,0,0,0,0,0,0,0,0,0,0.0202,0.0181,0.0184,0.0209,0.0211,0.0226,0.0227,0.0229,0.027,0.0271,0.0271,0.0272,0.0328,0.033,0.0332,0.0335,0,0,0.0338,0.0339,0,0,0,0,0,0,0,0,0.0201,0.0202,0.0205,0.0207,0.021,0.0241,0.0247,0.0264,0.027,0.0251,0.0271,0.0272,0.0299,0.0303,0.0314,0.0338,0.034,0.0338,0.0339,0.034,0.034,0,0,0,0,0,0,0,0.0199,0.0201,0.0204,0.0205,0.0208,0.0231,0.0235,0.0251,0.0275,0.0253,0.0255,0.0255,0.0301,0.0312,0.0316,0.0341,0.0338,0.034,0.0341,0.0341,0.0374,0.0373,0,0,0,0,0,0,0.0185,0.0199,0.0203,0.0205,0.0203,0.0231,0.0235,0.0233,0.0274,0.028,0.0254,0.0257,0.0309,0.0314,0.0318,0.033,0.034,0.0342,0.0343,0.0374,0.0374,0.0373,0,0,0,0,0,0,0.0185,0.0185,0.0201,0.0201,0.0204,0.023,0.0228,0.0234,0.025,0.0275,0.0282,0.0265,0.0309,0.0315,0.033,0.0332,0.0343,0.0344,0.0374,0.0374,0.0373,0.035,0,0,0,0,0,0,0.0184,0.0184,0.0186,0.02,0.0204,0.0208,0.0227,0.0234,0.0247,0.0251,0.0286,0.0291,0.031,0.0327,0.0332,0.0335,0.0346,0.0375,0.0374,0.0373,0.0351,0.0349,0.0347,0,0,0,0,0,0.0184,0.0176,0.0186,0.0187,0.0202,0.0208,0.0212,0.0234,0.0247,0.0251,0.0273,0.0291,0.0327,0.0328,0.0334,0.0338,0.0375,0.0374,0.0374,0.0352,0.0349,0.0347,0,0,0,0,0,0,0.0173,0.018,0.0191,0.0185,0.0196,0.0214,0.0218,0.0233,0.0255,0.0259,0.0287,0.0294,0.0307,0.0323,0.0323,0.0344,0.0354,0.0354,0.0336,0.0333,0.0331,0.0328,0.0347,0,0,0,0,0,0.017,0.0169,0.018,0.0177,0.018,0.0201,0.0208,0.0221,0.0237,0.0248,0.0269,0.029,0.0308,0.0321,0.0335,0.0348,0.0361,0.0354,0.0351,0.035,0.035,0.0359,0.0358,0.0371,0.0371,0.0371,0,0,0.0164,0.0168,0.0168,0.0175,0.0186,0.018,0.0207,0.0212,0.0213,0.0249,0.0258,0.0281,0.0307,0.032,0.0328,0.0336,0.0354,0.0349,0.0347,0.0349,0.0358,0.0357,0.0356,0.0371,0.0371,0.0371,0,0,0.0141,0.0155,0.0144,0.0149,0.0159,0.017,0.0169,0.0186,0.0201,0.021,0.0236,0.0262,0.0282,0.0308,0.0322,0.0317,0.0338,0.032,0.0314,0.0322,0.0321,0.032,0.034,0.0342,0.0324,0.0324,0.0324,0,0.0136,0.0121,0.0142,0.0131,0.0129,0.016,0.0145,0.0163,0.0183,0.0193,0.0206,0.0246,0.0277,0.0299,0.0305,0.0314,0.0322,0.0323,0.0319,0.0319,0.0318,0.0339,0.0341,0.0323,0.0323,0.0323,0.0323,0,0.01,0.0093,0.0085,0.0081,0.0086,0.0078,0.0097,0.0109,0.0129,0.0148,0.0172,0.0214,0.024,0.0258,0.0286,0.0302,0.031,0.0311,0.0326,0.0316,0.0338,0.0341,0.0321,0.0321,0.0322,0.0322,0,0,0.0071,0.0061,0.0059,0.0046,0.0058,0.0051,0.0058,0.007,0.0063,0.0107,0.0103,0.0168,0.0198,0.0217,0.0256,0.0281,0.0302,0.0299,0.03,0.032,0.0325,0.0322,0.0324,0.0297,0.0297,0.0297,0.0344,0,0.0036,0.0001,0.0009,-0.0024,-0.0042,-0.0012,-0.002,-0.0001,0.0024,0.0028,0.0097,0.0106,0.0178,0.0187,0.0228,0.0275,0.0305,0.029,0.0332,0.0334,0.0331,0.0325,0.0298,0.0346,0.0346,0.0347,0.0347,0,-0.0006,-0.0024,-0.006,-0.0088,-0.0094,-0.0107,-0.0112,-0.0114,-0.0082,-0.0066,-0.0018,0.0024,0.0091,0.0131,0.0232,0.0216,0.0273,0.0315,0.0317,0.0323,0.0334,0.0357,0.0351,0.0351,0.0351,0.035,0.035,0,-0.0044,-0.0077,-0.0108,-0.0115,-0.0135,-0.0145,-0.0154,-0.0138,-0.0154,-0.0122,-0.0129,-0.0046,-0.0013,0.0071,0.02,0.0203,0.0294,0.0302,0.0356,0.0357,0.0357,0.0357,0.0357,0.0357,0.0357,0.0357,0.0357,0,-0.0084,-0.0112,-0.0132,-0.0149,-0.0204,-0.0196,-0.025,-0.0236,-0.0243,-0.0268,-0.0179,-0.017,-0.0029,0.0053,0.0162,0.0276,0.027,0.0355,0.0365,0.0347,0.0346,0.0359,0.0359,0.0359,0.0358,0.0358,0.0357,0,-0.0113,-0.0124,-0.0168,-0.0201,-0.0221,-0.0256,-0.0319,-0.0364,-0.0344,-0.0372,-0.0365,-0.0267,-0.0152,-0.0006,0.0131,0.0221,0.0326,0.0366,0.0347,0.0354,0.0392,0.039,0.0415,0.0415,0.0415,0.0415,0.0415,0,-0.013,-0.0152,-0.0208,-0.0255,-0.0272,-0.0335,-0.0396,-0.0411,-0.0444,-0.0424,-0.0434,-0.0334,-0.025,-0.0054,0.0106,0.0299,0.0332,0.0383,0.0389,0.0389,0.0396,0.0394,0.0392,0.0415,0.0415,0.0416,0.0416,0,-0.0161,-0.0175,-0.0209,-0.031,-0.0379,-0.0465,-0.0528,-0.056,-0.0569,-0.0557,-0.05,-0.0383,-0.0253,-0.0069,0.0087,0.0229,0.0345,0.0386,0.0386,0.0392,0.0391,0.0397,0.0394,0.0416,0.0416,0.0416,0.0416,0,-0.0179,-0.0212,-0.0271,-0.0367,-0.0469,-0.0562,-0.0588,-0.0623,-0.0649,-0.0598,-0.0578,-0.0422,-0.0321,-0.0105,0.0039,0.0179,0.0213,0.0252,0.026,0.0261,0.0211,0.0187,0.0155,0,0,0,0,0,-0.0193,-0.0247,-0.034,-0.0445,-0.0557,-0.0612,-0.0676,-0.0687,-0.0682,-0.0657,-0.0615,-0.0489,-0.0267,-0.0159,-0.0023,0.0042,0.0236,0.0206,0.0284,0.0419,0.0418,0.0387,0,0,0,0,0,0,-0.0208,-0.0276,-0.0341,-0.0512,-0.0597,-0.0714,-0.075,-0.0737,-0.0706,-0.0666,-0.0544,-0.047,-0.0246,-0.0352,-0.0027,0.0019,0.0084,0.0318,0.0321,0.0419,0.0419,0.0418,0.0386,0,0,0,0,0]}]]